Overview Statistics Trail Chart Weather Telemetry Raw packets
 

This is the latest recevied weather packets stored in our database for station/object KW4UJ. If no packets are shown the sender has not sent any weather packets the latest 10 day(s).

<< 1 2 3 4 5 >>
Time Temp. Humidity Pressure Rain* Wind** Luminosity Snow
1788642361 26.67° C 71% 1010.4 hPa 0 mm - 98 W/m² -
1788642055 26.67° C 71% 1010.2 hPa 0 mm - 104 W/m² -
1788641755 26.67° C 71% 1010.3 hPa 0 mm - 95 W/m² -
1788641455 26.67° C 71% 1010.6 hPa 0 mm - 79 W/m² -
1788641155 26.67° C 69% 1010.5 hPa 0 mm - 88 W/m² -
1788640850 27.22° C 69% 1010.4 hPa 0 mm - 119 W/m² -
1788640550 27.22° C 69% 1010.3 hPa 0 mm - 143 W/m² -
1788640245 27.22° C 70% 1010.5 hPa 0 mm - 149 W/m² -
1788639941 27.22° C 71% 1010.5 hPa 0 mm - 229 W/m² -
1788639636 27.78° C 70% 1010.5 hPa 0 mm - 132 W/m² -
1788639332 27.22° C 69% 1010.4 hPa 0 mm - 302 W/m² -
1788639031 27.22° C 70% 1010.4 hPa 0 mm - 160 W/m² -
1788638727 26.67° C 71% 1010.5 hPa 0 mm - 214 W/m² -
1788638426 26.67° C 73% 1010.6 hPa 0 mm - 144 W/m² -
1788638121 26.67° C 74% 1010.5 hPa 0 mm - 124 W/m² -
1788637816 26.67° C 73% 1010.5 hPa 0 mm - 146 W/m² -
1788637516 26.67° C 72% 1010.7 hPa 0 mm - 165 W/m² -
1788637216 27.22° C 71% 1010.5 hPa 0 mm - 173 W/m² -
1788636916 27.22° C 70% 1010.7 hPa 0 mm - 167 W/m² -
1788636611 27.22° C 70% 1010.8 hPa 0 mm - 166 W/m² -
1788636306 27.22° C 70% 1010.7 hPa 0 mm - 206 W/m² -
1788636002 27.22° C 70% 1010.8 hPa 0 mm - 245 W/m² -
1788635701 27.22° C 71% 1010.7 hPa 0 mm - 280 W/m² -
1788635400 27.22° C 71% 1010.9 hPa 0 mm - 251 W/m² -
1788635098 27.78° C 70% 1010.9 hPa 0 mm - 209 W/m² -

* Rain latest hour (hover to see other rain measurements)
** Current wind speed in m/s (hover to see current wind gust speed)